| time (UTC) | temp F | wind direction | speed knots | gust knots | rain 1hr in | rain 24hr in | rain mn in | humidity % | barometer mb |
| 20260506044850 | 59 | 207 | 0.0 | 0.0 | 0.00 | 0.00 | 0.00 | 84 | 1011.1 |
| 20260506044618 | 59 | 207 | 0.0 | 0.0 | 0.00 | 0.00 | 0.00 | 84 | 1010.8 |
| 20260506044542 | 59 | 0 | 0.0 | 0.0 | 0.00 | 0.00 | 0.00 | 84 | 1010.7 |
| 20260506044341 | 59 | 207 | 0.0 | 0.0 | 0.00 | 0.00 | 0.00 | 83 | 1011.1 |
| 20260506043854 | 60 | 207 | 0.0 | 0.0 | 0.00 | 0.00 | 0.00 | 83 | 1011.1 |
| 20260506043345 | 60 | 207 | 0.0 | 0.0 | 0.00 | 0.00 | 0.00 | 82 | 1011.1 |
| 20260506043110 | 59 | 207 | 0.0 | 0.0 | 0.00 | 0.00 | 0.00 | 82 | 1010.8 |
| 20260506043048 | 59 | 0 | 0.0 | 0.0 | 0.00 | 0.00 | 0.00 | 82 | 1010.8 |
| 20260506042851 | 60 | 207 | 0.0 | 0.0 | 0.00 | 0.00 | 0.00 | 82 | 1011.1 |
| 20260506042342 | 60 | 207 | 0.0 | 0.0 | 0.00 | 0.00 | 0.00 | 82 | 1011.0 |
| 20260506041851 | 60 | 173 | 0.0 | 0.0 | 0.00 | 0.00 | 0.00 | 82 | 1010.9 |
| 20260506041619 | 60 | 184 | 0.0 | 0.0 | 0.00 | 0.00 | 0.00 | 81 | 1010.7 |
| 20260506041544 | 60 | 0 | 0.0 | 0.0 | 0.00 | 0.00 | 0.00 | 81 | 1010.6 |
| 20260506041341 | 61 | 184 | 0.0 | 0.0 | 0.00 | 0.00 | 0.00 | 81 | 1010.9 |
| 20260506040853 | 61 | 158 | 0.0 | 0.0 | 0.00 | 0.00 | 0.00 | 81 | 1010.9 |
| 20260506040344 | 61 | 149 | 0.0 | 0.9 | 0.00 | 0.00 | 0.00 | 81 | 1010.8 |
| 20260506040107 | 61 | 149 | 0.0 | 1.7 | 0.00 | 0.00 | 0.00 | 81 | 1010.6 |
| 20260506040052 | 61 | 0 | 0.0 | 1.7 | 0.00 | 0.00 | 0.00 | 80 | 1010.6 |
| 20260506035849 | 61 | 149 | 0.0 | 1.7 | 0.00 | 0.00 | 0.00 | 81 | 1010.9 |
| 20260506035341 | 62 | 141 | 0.0 | 0.9 | 0.00 | 0.00 | 0.00 | 81 | 1010.9 |
| 20260506034851 | 62 | 186 | 0.0 | 1.7 | 0.00 | 0.00 | 0.00 | 81 | 1010.9 |
| 20260506034620 | 61 | 188 | 0.0 | 1.7 | 0.00 | 0.00 | 0.00 | 80 | 1010.7 |
| 20260506034600 | 61 | 0 | 0.0 | 2.6 | 0.00 | 0.00 | 0.00 | 80 | 1010.7 |
| 20260506034345 | 62 | 167 | 0.9 | 1.7 | 0.00 | 0.00 | 0.00 | 80 | 1010.9 |
| 20260506033836 | 62 | 167 | 0.9 | 1.7 | 0.00 | 0.00 | 0.00 | 79 | 1011.0 |
| 20260506033409 | 63 | 167 | 0.9 | 2.6 | 0.00 | 0.00 | 0.00 | 79 | 1010.9 |
| 20260506033108 | 62 | 168 | 0.0 | 1.7 | 0.00 | 0.00 | 0.00 | 79 | 1010.7 |
| 20260506033043 | 62 | 168 | 0.9 | 2.6 | 0.00 | 0.00 | 0.00 | 78 | 1010.6 |
| 20260506032836 | 63 | 168 | 0.9 | 2.6 | 0.00 | 0.00 | 0.00 | 79 | 1010.8 |
| 20260506032346 | 63 | 188 | 0.9 | 2.6 | 0.00 | 0.00 | 0.00 | 78 | 1010.8 |
| 20260506031916 | 63 | 208 | 0.9 | 2.6 | 0.00 | 0.00 | 0.00 | 78 | 1010.6 |
| 20260506031544 | 63 | 159 | 0.9 | 3.5 | 0.00 | 0.00 | 0.00 | 78 | 1010.3 |
| 20260506031506 | 63 | 171 | 0.9 | 2.6 | 0.00 | 0.00 | 0.00 | 78 | 1010.4 |
| 20260506031406 | 63 | 166 | 1.7 | 2.6 | 0.00 | 0.00 | 0.00 | 78 | 1010.7 |
| 20260506030836 | 64 | 186 | 0.9 | 2.6 | 0.00 | 0.00 | 0.00 | 77 | 1010.8 |
| 20260506030347 | 64 | 182 | 0.0 | 2.6 | 0.00 | 0.00 | 0.00 | 77 | 1010.8 |
| 20260506030107 | 63 | 182 | 0.0 | 2.6 | 0.00 | 0.00 | 0.00 | 76 | 1010.5 |
| 20260506030041 | 63 | 0 | 0.0 | 3.5 | 0.00 | 0.00 | 0.00 | 76 | 1010.4 |
| 20260506025854 | 64 | 181 | 0.9 | 2.6 | 0.00 | 0.00 | 0.00 | 77 | 1010.8 |
| 20260506025345 | 64 | 173 | 0.9 | 3.5 | 0.00 | 0.00 | 0.00 | 76 | 1010.7 |
| 20260506024855 | 65 | 173 | 0.9 | 3.5 | 0.00 | 0.00 | 0.00 | 75 | 1010.7 |
| 20260506024617 | 64 | 168 | 0.9 | 3.5 | 0.00 | 0.00 | 0.00 | 75 | 1010.5 |
| 20260506024546 | 64 | 168 | 0.9 | 3.5 | 0.00 | 0.00 | 0.00 | 74 | 1010.5 |
| 20260506024343 | 65 | 172 | 0.9 | 1.7 | 0.00 | 0.00 | 0.00 | 74 | 1010.8 |
| 20260506023853 | 65 | 178 | 0.9 | 2.6 | 0.00 | 0.00 | 0.00 | 74 | 1010.8 |
| 20260506023344 | 65 | 182 | 1.7 | 2.6 | 0.00 | 0.00 | 0.00 | 73 | 1010.8 |
| 20260506023110 | 65 | 159 | 0.9 | 2.6 | 0.00 | 0.00 | 0.00 | 73 | 1010.6 |
| 20260506023038 | 65 | 185 | 0.9 | 3.5 | 0.00 | 0.00 | 0.00 | 72 | 1010.5 |
| 20260506022853 | 66 | 205 | 1.7 | 3.5 | 0.00 | 0.00 | 0.00 | 74 | 1010.8 |
| 20260506022343 | 66 | 184 | 1.7 | 3.5 | 0.00 | 0.00 | 0.00 | 73 | 1010.8 |
| 20260506021854 | 66 | 194 | 2.6 | 4.3 | 0.00 | 0.00 | 0.00 | 72 | 1010.8 |
| 20260506021602 | 65 | 173 | 1.7 | 6.1 | 0.00 | 0.00 | 0.00 | 73 | 1010.5 |
| 20260506021550 | 65 | 171 | 1.7 | 6.1 | 0.00 | 0.00 | 0.00 | 72 | 1010.3 |
| 20260506021406 | 66 | 159 | 2.6 | 6.1 | 0.00 | 0.00 | 0.00 | 73 | 1010.7 |
| 20260506020855 | 66 | 179 | 2.6 | 5.2 | 0.00 | 0.00 | 0.00 | 73 | 1010.7 |
| 20260506020347 | 65 | 186 | 1.7 | 4.3 | 0.00 | 0.00 | 0.00 | 73 | 1010.7 |
| 20260506020113 | 65 | 188 | 0.9 | 4.3 | 0.00 | 0.00 | 0.00 | 73 | 1010.5 |
| 20260506020041 | 65 | 0 | 1.7 | 4.3 | 0.00 | 0.00 | 0.00 | 73 | 1010.4 |
| 20260506015916 | 65 | 182 | 2.6 | 4.3 | 0.00 | 0.00 | 0.00 | 73 | 1010.6 |
| 20260506015345 | 65 | 207 | 1.7 | 4.3 | 0.00 | 0.00 | 0.00 | 75 | 1010.6 |
| 20260506014836 | 65 | 174 | 1.7 | 4.3 | 0.00 | 0.00 | 0.00 | 74 | 1010.6 |
| 20260506014605 | 64 | 196 | 0.9 | 3.5 | 0.00 | 0.00 | 0.00 | 75 | 1010.2 |
| 20260506014542 | 64 | 213 | 0.9 | 4.3 | 0.00 | 0.00 | 0.00 | 74 | 1010.1 |
| 20260506014347 | 65 | 229 | 0.9 | 4.3 | 0.00 | 0.00 | 0.00 | 75 | 1010.5 |
| 20260506013838 | 65 | 171 | 1.7 | 4.3 | 0.00 | 0.00 | 0.00 | 74 | 1010.4 |
| 20260506013349 | 65 | 176 | 0.9 | 6.1 | 0.00 | 0.00 | 0.00 | 74 | 1010.3 |
| 20260506013113 | 65 | 180 | 1.7 | 6.1 | 0.00 | 0.00 | 0.00 | 74 | 1010.0 |
| 20260506013044 | 65 | 194 | 1.7 | 6.1 | 0.00 | 0.00 | 0.00 | 74 | 1009.9 |
| 20260506012915 | 65 | 165 | 1.7 | 6.1 | 0.00 | 0.00 | 0.00 | 74 | 1010.2 |
| 20260506012345 | 65 | 188 | 2.6 | 6.1 | 0.00 | 0.00 | 0.00 | 74 | 1010.1 |
| 20260506011855 | 65 | 190 | 0.9 | 5.2 | 0.00 | 0.00 | 0.00 | 76 | 1010.2 |
| 20260506011604 | 64 | 179 | 0.9 | 5.2 | 0.00 | 0.00 | 0.00 | 76 | 1009.9 |
| 20260506011545 | 64 | 180 | 0.0 | 6.1 | 0.00 | 0.00 | 0.00 | 75 | 1009.7 |
| 20260506011345 | 64 | 211 | 0.9 | 5.2 | 0.00 | 0.00 | 0.00 | 75 | 1010.1 |
| 20260506010853 | 64 | 148 | 1.7 | 9.6 | 0.00 | 0.00 | 0.00 | 76 | 1010.1 |
| 20260506010346 | 64 | 175 | 0.9 | 9.6 | 0.00 | 0.00 | 0.00 | 76 | 1010.1 |
| 20260506010110 | 64 | 88 | 0.9 | 10.4 | 0.00 | 0.00 | 0.00 | 76 | 1009.7 |
| 20260506010047 | 64 | 227 | 0.9 | 3.5 | 0.00 | 0.00 | 0.00 | 75 | 1009.6 |
| 20260506005852 | 64 | 184 | 1.7 | 3.5 | 0.00 | 0.00 | 0.00 | 75 | 1010.0 |
| 20260506005342 | 65 | 245 | 0.0 | 3.5 | 0.00 | 0.00 | 0.00 | 75 | 1009.9 |
| 20260506004853 | 65 | 209 | 0.9 | 2.6 | 0.00 | 0.00 | 0.00 | 74 | 1009.9 |
| 20260506004621 | 65 | 215 | 0.0 | 2.6 | 0.00 | 0.00 | 0.00 | 75 | 1009.7 |
| 20260506004536 | 65 | 0 | 0.0 | 2.6 | 0.00 | 0.00 | 0.00 | 74 | 1009.5 |
| 20260506004343 | 65 | 216 | 0.9 | 2.6 | 0.00 | 0.00 | 0.00 | 74 | 1009.8 |
| 20260506003837 | 66 | 221 | 0.0 | 2.6 | 0.00 | 0.00 | 0.00 | 73 | 1009.8 |
| 20260506003349 | 66 | 162 | 0.9 | 1.7 | 0.00 | 0.00 | 0.00 | 73 | 1009.8 |
| 20260506003110 | 65 | 219 | 0.0 | 4.3 | 0.00 | 0.00 | 0.00 | 73 | 1009.5 |
| 20260506003042 | 65 | 0 | 0.0 | 4.3 | 0.00 | 0.00 | 0.00 | 72 | 1009.5 |
| 20260506002856 | 66 | 184 | 0.9 | 4.3 | 0.00 | 0.00 | 0.00 | 73 | 1009.7 |
| 20260506002346 | 66 | 186 | 1.7 | 4.3 | 0.00 | 0.00 | 0.00 | 72 | 1009.7 |
| 20260506001836 | 66 | 212 | 0.9 | 3.5 | 0.00 | 0.00 | 0.00 | 72 | 1009.5 |
| 20260506001620 | 66 | 213 | 0.9 | 3.5 | 0.00 | 0.00 | 0.00 | 73 | 1009.3 |
| 20260506001542 | 66 | 190 | 0.9 | 3.5 | 0.00 | 0.00 | 0.00 | 72 | 1009.1 |
| 20260506001346 | 67 | 209 | 1.7 | 3.5 | 0.00 | 0.00 | 0.00 | 72 | 1009.5 |
| 20260506000837 | 67 | 177 | 0.9 | 2.6 | 0.00 | 0.00 | 0.00 | 72 | 1009.4 |
| 20260506000348 | 67 | 158 | 0.9 | 1.7 | 0.00 | 0.00 | 0.00 | 73 | 1009.5 |
| 20260506000110 | 67 | 176 | 0.0 | 2.6 | 0.00 | 0.00 | 0.00 | 72 | 1009.2 |
| 20260506000039 | 67 | 0 | 0.0 | 3.5 | 0.00 | 0.00 | 0.00 | 72 | 1009.1 |
| 20260505235916 | 67 | 164 | 0.9 | 2.6 | 0.00 | 0.00 | 0.00 | 72 | 1009.5 |
| 20260505235345 | 68 | 177 | 1.7 | 2.6 | 0.00 | 0.00 | 0.00 | 71 | 1009.2 |
| 20260505234857 | 68 | 175 | 0.9 | 4.3 | 0.00 | 0.00 | 0.00 | 71 | 1009.2 |
| 20260505234620 | 68 | 172 | 0.0 | 4.3 | 0.00 | 0.00 | 0.00 | 71 | 1009.0 |
| 20260505234602 | 68 | 171 | 0.9 | 4.3 | 0.00 | 0.00 | 0.00 | 71 | 1009.0 |
| 20260505234345 | 69 | 197 | 1.7 | 4.3 | 0.00 | 0.00 | 0.00 | 70 | 1009.3 |
| 20260505233835 | 69 | 199 | 1.7 | 2.6 | 0.00 | 0.00 | 0.00 | 68 | 1009.2 |
| 20260505233348 | 69 | 206 | 0.9 | 2.6 | 0.00 | 0.00 | 0.00 | 69 | 1009.1 |
| 20260505233113 | 69 | 194 | 0.0 | 2.6 | 0.00 | 0.00 | 0.00 | 69 | 1008.7 |
| 20260505233038 | 69 | 209 | 0.9 | 2.6 | 0.00 | 0.00 | 0.00 | 68 | 1008.6 |
| 20260505232855 | 69 | 231 | 0.9 | 2.6 | 0.00 | 0.00 | 0.00 | 68 | 1008.9 |
| 20260505232406 | 70 | 188 | 0.9 | 3.5 | 0.00 | 0.00 | 0.00 | 67 | 1008.8 |
| 20260505231855 | 70 | 151 | 0.9 | 4.3 | 0.00 | 0.00 | 0.00 | 66 | 1008.7 |
| 20260505231605 | 70 | 236 | 1.7 | 4.3 | 0.00 | 0.00 | 0.00 | 65 | 1008.5 |
| 20260505231538 | 70 | 248 | 1.7 | 4.3 | 0.00 | 0.00 | 0.00 | 65 | 1008.5 |
| 20260505231344 | 71 | 228 | 1.7 | 4.3 | 0.00 | 0.00 | 0.00 | 65 | 1008.7 |
| 20260505230853 | 71 | 153 | 0.9 | 4.3 | 0.00 | 0.00 | 0.00 | 66 | 1008.6 |
| 20260505230344 | 71 | 242 | 2.6 | 8.7 | 0.00 | 0.00 | 0.00 | 65 | 1008.5 |
| 20260505230108 | 71 | 202 | 1.7 | 8.7 | 0.00 | 0.00 | 0.00 | 64 | 1008.2 |
| 20260505230046 | 71 | 192 | 2.6 | 8.7 | 0.00 | 0.00 | 0.00 | 64 | 1008.1 |
| 20260505225849 | 71 | 222 | 1.7 | 3.5 | 0.00 | 0.00 | 0.00 | 64 | 1008.4 |
| 20260505225339 | 72 | 144 | 0.9 | 3.5 | 0.00 | 0.00 | 0.00 | 65 | 1008.3 |
| 20260505224849 | 72 | 142 | 0.9 | 3.5 | 0.00 | 0.00 | 0.00 | 65 | 1008.3 |
| 20260505224617 | 71 | 173 | 0.9 | 3.5 | 0.00 | 0.00 | 0.00 | 63 | 1008.1 |
| 20260505224540 | 71 | 195 | 0.9 | 3.5 | 0.00 | 0.00 | 0.00 | 63 | 1008.0 |
| 20260505224339 | 72 | 157 | 0.9 | 2.6 | 0.00 | 0.00 | 0.00 | 63 | 1008.3 |
| 20260505223848 | 72 | 213 | 0.9 | 4.3 | 0.00 | 0.00 | 0.00 | 62 | 1008.2 |
| 20260505223341 | 72 | 186 | 1.7 | 4.3 | 0.00 | 0.00 | 0.00 | 61 | 1008.2 |
| 20260505223109 | 72 | 192 | 0.9 | 7.0 | 0.00 | 0.00 | 0.00 | 62 | 1007.9 |
| 20260505223044 | 72 | 209 | 0.9 | 7.0 | 0.00 | 0.00 | 0.00 | 62 | 1007.7 |
| 20260505222849 | 72 | 188 | 1.7 | 7.0 | 0.00 | 0.00 | 0.00 | 61 | 1008.1 |
| 20260505222338 | 72 | 221 | 2.6 | 7.0 | 0.00 | 0.00 | 0.00 | 62 | 1008.1 |
| 20260505221848 | 73 | 170 | 0.9 | 3.5 | 0.00 | 0.00 | 0.00 | 61 | 1008.2 |
| 20260505221616 | 72 | 209 | 0.9 | 6.1 | 0.00 | 0.00 | 0.00 | 62 | 1008.0 |
| 20260505221539 | 72 | 196 | 0.9 | 6.1 | 0.00 | 0.00 | 0.00 | 63 | 1007.9 |
| 20260505221339 | 73 | 180 | 0.9 | 6.1 | 0.00 | 0.00 | 0.00 | 64 | 1008.3 |
| 20260505220849 | 73 | 222 | 1.7 | 3.5 | 0.00 | 0.00 | 0.00 | 61 | 1008.4 |
| 20260505220341 | 73 | 213 | 0.9 | 3.5 | 0.00 | 0.00 | 0.00 | 63 | 1008.3 |
| 20260505220040 | 73 | 201 | 0.9 | 5.2 | 0.00 | 0.00 | 0.00 | 62 | 1007.7 |
| 20260505215845 | 74 | 197 | 0.9 | 4.3 | 0.00 | 0.00 | 0.00 | 62 | 1008.2 |
| 20260505215416 | 74 | 218 | 0.9 | 5.2 | 0.00 | 0.00 | 0.00 | 61 | 1008.1 |
| 20260505214846 | 74 | 205 | 1.7 | 4.3 | 0.00 | 0.00 | 0.00 | 60 | 1008.0 |
| 20260505214616 | 74 | 54 | 0.9 | 4.3 | 0.00 | 0.00 | 0.00 | 60 | 1007.8 |
| 20260505214549 | 74 | 137 | 0.9 | 4.3 | 0.00 | 0.00 | 0.00 | 60 | 1007.6 |
| 20260505214340 | 74 | 155 | 1.7 | 3.5 | 0.00 | 0.00 | 0.00 | 61 | 1008.0 |
| 20260505213850 | 75 | 101 | 0.9 | 4.3 | 0.00 | 0.00 | 0.00 | 61 | 1008.0 |
| 20260505213341 | 75 | 142 | 1.7 | 4.3 | 0.00 | 0.00 | 0.00 | 59 | 1008.0 |
| 20260505213121 | 74 | 197 | 0.9 | 5.2 | 0.00 | 0.00 | 0.00 | 59 | 1007.7 |
| 20260505213043 | 74 | 201 | 0.9 | 7.0 | 0.00 | 0.00 | 0.00 | 59 | 1007.5 |
| 20260505212849 | 75 | 80 | 1.7 | 7.0 | 0.00 | 0.00 | 0.00 | 60 | 1007.9 |
| 20260505212338 | 75 | 51 | 1.7 | 7.0 | 0.00 | 0.00 | 0.00 | 59 | 1007.9 |
| 20260505211848 | 75 | 53 | 2.6 | 5.2 | 0.00 | 0.00 | 0.00 | 58 | 1007.9 |
| 20260505211613 | 75 | 208 | 1.7 | 7.0 | 0.00 | 0.00 | 0.00 | 59 | 1007.7 |
| 20260505211601 | 75 | 137 | 1.7 | 8.7 | 0.00 | 0.00 | 0.00 | 59 | 1007.5 |
| 20260505211339 | 76 | 130 | 1.7 | 7.0 | 0.00 | 0.00 | 0.00 | 58 | 1007.9 |
| 20260505210910 | 76 | 92 | 2.6 | 8.7 | 0.00 | 0.00 | 0.00 | 58 | 1007.9 |
| 20260505210341 | 76 | 156 | 2.6 | 7.0 | 0.00 | 0.00 | 0.00 | 59 | 1007.7 |
| 20260505210121 | 76 | 153 | 1.7 | 4.3 | 0.00 | 0.00 | 0.00 | 58 | 1007.4 |
| 20260505210040 | 76 | 172 | 1.7 | 7.0 | 0.00 | 0.00 | 0.00 | 57 | 1007.2 |
| 20260505205846 | 76 | 134 | 1.7 | 6.1 | 0.00 | 0.00 | 0.00 | 58 | 1007.7 |
| 20260505205358 | 76 | 144 | 2.6 | 7.0 | 0.00 | 0.00 | 0.00 | 58 | 1007.9 |
| 20260505204907 | 76 | 161 | 2.6 | 5.2 | 0.00 | 0.00 | 0.00 | 60 | 1007.9 |
| 20260505204611 | 76 | 174 | 1.7 | 5.2 | 0.00 | 0.00 | 0.00 | 58 | 1007.6 |
| 20260505204539 | 76 | 152 | 1.7 | 6.1 | 0.00 | 0.00 | 0.00 | 57 | 1007.4 |
| 20260505204337 | 77 | 159 | 1.7 | 6.1 | 0.00 | 0.00 | 0.00 | 58 | 1007.9 |
| 20260505203908 | 77 | 134 | 2.6 | 7.0 | 0.00 | 0.00 | 0.00 | 59 | 1008.0 |
| 20260505203358 | 77 | 137 | 2.6 | 7.0 | 0.00 | 0.00 | 0.00 | 57 | 1008.0 |
| 20260505203119 | 76 | 148 | 1.7 | 6.1 | 0.00 | 0.00 | 0.00 | 58 | 1007.9 |
| 20260505203055 | 76 | 86 | 1.7 | 10.4 | 0.00 | 0.00 | 0.00 | 58 | 1007.6 |
| 20260505202845 | 77 | 138 | 2.6 | 10.4 | 0.00 | 0.00 | 0.00 | 58 | 1008.1 |
| 20260505202354 | 77 | 234 | 3.5 | 10.4 | 0.00 | 0.00 | 0.00 | 56 | 1008.0 |
| 20260505201844 | 77 | 157 | 3.5 | 9.6 | 0.00 | 0.00 | 0.00 | 58 | 1008.0 |
| 20260505201612 | 77 | 134 | 2.6 | 6.1 | 0.00 | 0.00 | 0.00 | 59 | 1007.9 |
| 20260505201542 | 76 | 156 | 1.7 | 8.7 | 0.00 | 0.00 | 0.00 | 58 | 1007.8 |
| 20260505201336 | 77 | 169 | 2.6 | 7.8 | 0.00 | 0.00 | 0.00 | 59 | 1008.1 |
| 20260505200846 | 77 | 198 | 2.6 | 8.7 | 0.00 | 0.00 | 0.00 | 58 | 1008.2 |
| 20260505200359 | 77 | 171 | 4.3 | 7.8 | 0.00 | 0.00 | 0.00 | 56 | 1008.2 |
| 20260505200103 | 77 | 181 | 4.3 | 8.7 | 0.00 | 0.00 | 0.00 | 57 | 1008.0 |
| 20260505200048 | 77 | 198 | 3.5 | 8.7 | 0.00 | 0.00 | 0.00 | 56 | 1008.0 |
| 20260505195845 | 77 | 170 | 2.6 | 8.7 | 0.00 | 0.00 | 0.00 | 60 | 1008.3 |
| 20260505195356 | 77 | 188 | 3.5 | 8.7 | 0.00 | 0.00 | 0.00 | 59 | 1008.4 |
| 20260505194847 | 77 | 195 | 4.3 | 8.7 | 0.00 | 0.00 | 0.00 | 57 | 1008.4 |
| 20260505194615 | 77 | 167 | 3.5 | 8.7 | 0.00 | 0.00 | 0.00 | 59 | 1008.2 |
| 20260505194543 | 77 | 164 | 4.3 | 8.7 | 0.00 | 0.00 | 0.00 | 60 | 1008.2 |
| 20260505194337 | 77 | 163 | 5.2 | 8.7 | 0.00 | 0.00 | 0.00 | 57 | 1008.5 |
| 20260505193847 | 78 | 105 | 3.5 | 13.0 | 0.00 | 0.00 | 0.00 | 61 | 1008.6 |
| 20260505193356 | 77 | 222 | 3.5 | 13.0 | 0.00 | 0.00 | 0.00 | 57 | 1008.6 |
| 20260505193121 | 77 | 166 | 5.2 | 13.0 | 0.00 | 0.00 | 0.00 | 56 | 1008.4 |
| 20260505193038 | 77 | 189 | 4.3 | 12.2 | 0.00 | 0.00 | 0.00 | 56 | 1008.3 |
| 20260505192844 | 78 | 152 | 4.3 | 7.8 | 0.00 | 0.00 | 0.00 | 56 | 1008.6 |
| 20260505192336 | 78 | 227 | 2.6 | 9.6 | 0.00 | 0.00 | 0.00 | 57 | 1008.7 |
| 20260505191846 | 78 | 174 | 4.3 | 9.6 | 0.00 | 0.00 | 0.00 | 55 | 1008.7 |
| 20260505191632 | 78 | 178 | 3.5 | 7.0 | 0.00 | 0.00 | 0.00 | 56 | 1008.5 |
| 20260505191550 | 79 | 176 | 1.7 | 7.8 | 0.00 | 0.00 | 0.00 | 55 | 1008.3 |
| 20260505191335 | 79 | 204 | 0.9 | 7.8 | 0.00 | 0.00 | 0.00 | 55 | 1008.7 |
| 20260505190846 | 79 | 157 | 2.6 | 7.8 | 0.00 | 0.00 | 0.00 | 54 | 1008.6 |
| 20260505190418 | 79 | 147 | 4.3 | 8.7 | 0.00 | 0.00 | 0.00 | 54 | 1008.8 |
| 20260505190122 | 79 | 163 | 3.5 | 8.7 | 0.00 | 0.00 | 0.00 | 54 | 1008.7 |
| 20260505190042 | 79 | 207 | 2.6 | 8.7 | 0.00 | 0.00 | 0.00 | 54 | 1008.5 |
| 20260505185844 | 80 | 142 | 2.6 | 7.0 | 0.00 | 0.00 | 0.00 | 56 | 1008.9 |
| 20260505185354 | 81 | 80 | 2.6 | 7.0 | 0.00 | 0.00 | 0.00 | 55 | 1009.0 |
| 20260505184906 | 80 | 117 | 2.6 | 7.0 | 0.00 | 0.00 | 0.00 | 55 | 1009.1 |
| 20260505184615 | 80 | 140 | 1.7 | 7.0 | 0.00 | 0.00 | 0.00 | 53 | 1008.9 |
| 20260505184548 | 80 | 132 | 2.6 | 7.0 | 0.00 | 0.00 | 0.00 | 53 | 1008.7 |
| 20260505184335 | 81 | 86 | 2.6 | 7.0 | 0.00 | 0.00 | 0.00 | 55 | 1009.2 |
| 20260505183846 | 81 | 189 | 3.5 | 5.2 | 0.00 | 0.00 | 0.00 | 52 | 1009.2 |
| 20260505183341 | 81 | 166 | 2.6 | 8.7 | 0.00 | 0.00 | 0.00 | 52 | 1009.2 |
| 20260505183043 | 80 | 51 | 3.5 | 9.6 | 0.00 | 0.00 | 0.00 | 54 | 1008.9 |
| 20260505183005 | 80 | 80 | 4.3 | 8.7 | 0.00 | 0.00 | 0.00 | 55 | 1009.0 |
| 20260505182904 | 81 | 214 | 4.3 | 9.6 | 0.00 | 0.00 | 0.00 | 51 | 1009.3 |
| 20260505182351 | 81 | 213 | 4.3 | 6.1 | 0.00 | 0.00 | 0.00 | 52 | 1009.2 |
| 20260505181859 | 80 | 163 | 2.6 | 10.4 | 0.00 | 0.00 | 0.00 | 53 | 1009.2 |
| 20260505181606 | 80 | 186 | 3.5 | 10.4 | 0.00 | 0.00 | 0.00 | 52 | 1009.0 |
| 20260505181538 | 80 | 150 | 3.5 | 12.2 | 0.00 | 0.00 | 0.00 | 50 | 1008.8 |
| 20260505181348 | 81 | 169 | 4.3 | 10.4 | 0.00 | 0.00 | 0.00 | 53 | 1009.2 |
| 20260505180842 | 81 | 197 | 3.5 | 12.2 | 0.00 | 0.00 | 0.00 | 53 | 1009.2 |
| 20260505180350 | 81 | 227 | 5.2 | 12.2 | 0.00 | 0.00 | 0.00 | 48 | 1009.2 |
| 20260505180108 | 80 | 215 | 6.1 | 11.3 | 0.00 | 0.00 | 0.00 | 50 | 1009.0 |
| 20260505180036 | 80 | 239 | 4.3 | 10.4 | 0.00 | 0.00 | 0.00 | 50 | 1008.9 |
| 20260505175910 | 81 | 160 | 5.2 | 9.6 | 0.00 | 0.00 | 0.00 | 50 | 1009.2 |
| 20260505175359 | 80 | 104 | 4.3 | 10.4 | 0.00 | 0.00 | 0.00 | 51 | 1009.5 |
| 20260505174909 | 80 | 198 | 5.2 | 10.4 | 0.00 | 0.00 | 0.00 | 53 | 1009.4 |
| 20260505174616 | 79 | 228 | 4.3 | 7.8 | 0.00 | 0.00 | 0.00 | 51 | 1009.1 |
| 20260505174536 | 79 | 166 | 4.3 | 8.7 | 0.00 | 0.00 | 0.00 | 50 | 1009.1 |
| 20260505174338 | 80 | 191 | 4.3 | 7.8 | 0.00 | 0.00 | 0.00 | 52 | 1009.5 |
| 20260505173910 | 80 | 229 | 4.3 | 8.7 | 0.00 | 0.00 | 0.00 | 51 | 1009.5 |
| 20260505173400 | 80 | 164 | 2.6 | 7.8 | 0.00 | 0.00 | 0.00 | 54 | 1009.5 |
| 20260505173128 | 79 | 151 | 2.6 | 7.8 | 0.00 | 0.00 | 0.00 | 52 | 1009.3 |
| 20260505173041 | 79 | 239 | 2.6 | 7.8 | 0.00 | 0.00 | 0.00 | 51 | 1009.2 |
| 20260505172841 | 80 | 215 | 2.6 | 6.1 | 0.00 | 0.00 | 0.00 | 53 | 1009.5 |
| 20260505172353 | 80 | 155 | 2.6 | 9.6 | 0.00 | 0.00 | 0.00 | 53 | 1009.6 |
| 20260505171903 | 80 | 123 | 1.7 | 9.6 | 0.00 | 0.00 | 0.00 | 54 | 1009.6 |
| 20260505171611 | 79 | 103 | 1.7 | 9.6 | 0.00 | 0.00 | 0.00 | 55 | 1009.4 |
| 20260505171539 | 79 | 100 | 1.7 | 7.0 | 0.00 | 0.00 | 0.00 | 55 | 1009.2 |
| 20260505171352 | 80 | 157 | 2.6 | 7.0 | 0.00 | 0.00 | 0.00 | 54 | 1009.6 |
| 20260505170843 | 80 | 209 | 3.5 | 7.0 | 0.00 | 0.00 | 0.00 | 52 | 1009.7 |
| 20260505170339 | 80 | 200 | 2.6 | 6.1 | 0.00 | 0.00 | 0.00 | 55 | 1009.9 |
| 20260505170120 | 79 | 203 | 2.6 | 7.0 | 0.00 | 0.00 | 0.00 | 56 | 1009.7 |
| 20260505170040 | 79 | 197 | 2.6 | 7.0 | 0.00 | 0.00 | 0.00 | 55 | 1009.4 |
| 20260505165846 | 80 | 176 | 3.5 | 6.1 | 0.00 | 0.00 | 0.00 | 52 | 1009.8 |
| 20260505165354 | 79 | 164 | 2.6 | 6.1 | 0.00 | 0.00 | 0.00 | 56 | 1010.0 |
| 20260505164843 | 79 | 169 | 2.6 | 6.1 | 0.00 | 0.00 | 0.00 | 52 | 1010.0 |
| 20260505164608 | 79 | 211 | 2.6 | 5.2 | 0.00 | 0.00 | 0.00 | 54 | 1009.8 |
| 20260505164539 | 79 | 169 | 2.6 | 12.2 | 0.00 | 0.00 | 0.00 | 53 | 1009.6 |
| 20260505164354 | 79 | 175 | 2.6 | 9.6 | 0.00 | 0.00 | 0.00 | 52 | 1010.0 |
| 20260505163844 | 79 | 187 | 4.3 | 12.2 | 0.00 | 0.00 | 0.00 | 51 | 1010.2 |
| 20260505163355 | 79 | 202 | 6.1 | 12.2 | 0.00 | 0.00 | 0.00 | 52 | 1010.3 |
| 20260505163042 | 78 | 198 | 2.6 | 7.8 | 0.00 | 0.00 | 0.00 | 53 | 1009.7 |
| 20260505163002 | 78 | 213 | 3.5 | 7.8 | 0.00 | 0.00 | 0.00 | 53 | 1010.0 |
| 20260505162901 | 79 | 174 | 3.5 | 7.8 | 0.00 | 0.00 | 0.00 | 50 | 1010.3 |
| 20260505162349 | 79 | 147 | 1.7 | 7.0 | 0.00 | 0.00 | 0.00 | 53 | 1010.2 |
| 20260505161837 | 79 | 180 | 1.7 | 6.1 | 0.00 | 0.00 | 0.00 | 51 | 1010.4 |
| 20260505161621 | 78 | 100 | 0.9 | 6.1 | 0.00 | 0.00 | 0.00 | 54 | 1010.1 |
| 20260505161543 | 78 | 134 | 2.6 | 7.0 | 0.00 | 0.00 | 0.00 | 51 | 1009.7 |
| 20260505161347 | 78 | 232 | 3.5 | 6.1 | 0.00 | 0.00 | 0.00 | 50 | 1010.4 |
| 20260505160837 | 79 | 200 | 2.6 | 7.0 | 0.00 | 0.00 | 0.00 | 50 | 1010.5 |
| 20260505160347 | 79 | 215 | 0.9 | 9.6 | 0.00 | 0.00 | 0.00 | 50 | 1010.6 |
| 20260505160111 | 78 | 103 | 1.7 | 9.6 | 0.00 | 0.00 | 0.00 | 53 | 1010.5 |
| 20260505153107 | 76 | 128 | 0.9 | 7.0 | 0.00 | 0.00 | 0.00 | 53 | 1010.8 |
| 20260505153045 | 76 | 0 | 2.6 | 7.0 | 0.00 | 0.00 | 0.00 | 52 | 1010.4 |
| 20260505152848 | 77 | 217 | 3.5 | 7.0 | 0.00 | 0.00 | 0.00 | 53 | 1011.0 |
| 20260505152339 | 77 | 199 | 1.7 | 5.2 | 0.00 | 0.00 | 0.00 | 55 | 1011.0 |
| 20260505151910 | 76 | 267 | 2.6 | 7.0 | 0.00 | 0.00 | 0.00 | 55 | 1010.9 |
| 20260505151618 | 76 | 146 | 0.9 | 7.0 | 0.00 | 0.00 | 0.00 | 56 | 1010.7 |
| 20260505151543 | 76 | 150 | 1.7 | 7.0 | 0.00 | 0.00 | 0.00 | 54 | 1010.4 |
| 20260505151341 | 76 | 15 | 2.6 | 7.0 | 0.00 | 0.00 | 0.00 | 55 | 1011.0 |
| 20260505150852 | 76 | 192 | 2.6 | 7.0 | 0.00 | 0.00 | 0.00 | 58 | 1011.1 |
| 20260505150344 | 76 | 238 | 3.5 | 7.0 | 0.00 | 0.00 | 0.00 | 55 | 1011.3 |
| 20260505150110 | 75 | 232 | 2.6 | 7.0 | 0.00 | 0.00 | 0.00 | 57 | 1011.2 |
| 20260505140412 | 71 | 235 | 2.6 | 5.2 | 0.00 | 0.00 | 0.00 | 65 | 1011.4 |
| 20260505140109 | 70 | 239 | 0.9 | 6.1 | 0.00 | 0.00 | 0.00 | 66 | 1011.3 |
| 20260505124839 | 61 | 200 | 2.6 | 3.5 | 0.00 | 0.00 | 0.00 | 84 | 1011.2 |
| 20260505124607 | 60 | 202 | 0.9 | 4.3 | 0.00 | 0.00 | 0.00 | 86 | 1011.1 |
| 20260505124540 | 60 | 179 | 0.9 | 4.3 | 0.00 | 0.00 | 0.00 | 85 | 1010.6 |
| 20260505124349 | 60 | 215 | 1.7 | 4.3 | 0.00 | 0.00 | 0.00 | 87 | 1011.3 |
| 20260505123839 | 59 | 165 | 0.9 | 3.5 | 0.00 | 0.00 | 0.00 | 89 | 1011.3 |
| 20260505123350 | 59 | 174 | 1.7 | 3.5 | 0.00 | 0.00 | 0.00 | 91 | 1011.3 |
| 20260505123115 | 58 | 190 | 1.7 | 3.5 | 0.00 | 0.00 | 0.00 | 92 | 1011.3 |
| 20260505123038 | 58 | 183 | 1.7 | 4.3 | 0.00 | 0.00 | 0.00 | 92 | 1010.8 |
| 20260505122838 | 58 | 198 | 2.6 | 3.5 | 0.00 | 0.00 | 0.00 | 94 | 1011.2 |
| 20260505122347 | 57 | 190 | 0.9 | 3.5 | 0.00 | 0.00 | 0.00 | 96 | 1011.0 |
| 20260505121838 | 57 | 106 | 0.9 | 2.6 | 0.00 | 0.00 | 0.00 | 97 | 1011.0 |
| 20260505121608 | 56 | 189 | 0.9 | 5.2 | 0.00 | 0.00 | 0.00 | 97 | 1011.0 |
| 20260505121548 | 56 | 215 | 0.0 | 5.2 | 0.00 | 0.00 | 0.00 | 97 | 1010.3 |
| 20260505121411 | 56 | 155 | 0.9 | 5.2 | 0.00 | 0.00 | 0.00 | 97 | 1011.0 |
| 20260505120839 | 55 | 67 | 2.6 | 5.2 | 0.00 | 0.00 | 0.00 | 98 | 1011.1 |
| 20260505120351 | 55 | 156 | 0.9 | 2.6 | 0.00 | 0.00 | 0.00 | 98 | 1011.0 |
| 20260505120114 | 54 | 355 | 0.9 | 2.6 | 0.00 | 0.00 | 0.00 | 98 | 1010.8 |
| 20260505120042 | 54 | 5 | 0.0 | 3.5 | 0.00 | 0.00 | 0.00 | 97 | 1010.3 |
| 20260505115836 | 54 | 346 | 0.9 | 3.5 | 0.00 | 0.00 | 0.00 | 98 | 1010.9 |
| 20260505115348 | 54 | 348 | 0.9 | 3.5 | 0.00 | 0.00 | 0.00 | 98 | 1011.1 |
| 20260505114837 | 53 | 80 | 0.0 | 0.9 | 0.00 | 0.00 | 0.00 | 98 | 1011.3 |
| 20260505114607 | 53 | 108 | 0.0 | 0.9 | 0.00 | 0.00 | 0.00 | 98 | 1011.2 |
| 20260505114538 | 53 | 108 | 0.0 | 0.9 | 0.00 | 0.00 | 0.00 | 97 | 1010.7 |
| 20260505114410 | 53 | 108 | 0.0 | 0.9 | 0.00 | 0.00 | 0.00 | 98 | 1011.4 |
| 20260505113838 | 52 | 108 | 0.0 | 0.0 | 0.00 | 0.00 | 0.00 | 97 | 1011.7 |
| 20260505113348 | 51 | 108 | 0.0 | 0.9 | 0.00 | 0.00 | 0.00 | 97 | 1011.8 |
| 20260505113112 | 50 | 108 | 0.0 | 0.9 | 0.00 | 0.00 | 0.00 | 97 | 1011.7 |
| 20260505113054 | 50 | 0 | 0.0 | 0.9 | 0.00 | 0.00 | 0.00 | 97 | 1011.1 |
| 20260505112856 | 50 | 108 | 0.0 | 0.9 | 0.00 | 0.00 | 0.00 | 97 | 1011.6 |
| 20260505112345 | 49 | 108 | 0.0 | 0.0 | 0.00 | 0.00 | 0.00 | 97 | 1011.5 |
| 20260505111915 | 49 | 108 | 0.0 | 0.9 | 0.00 | 0.00 | 0.00 | 97 | 1011.5 |
| 20260505111603 | 48 | 108 | 0.0 | 0.9 | 0.00 | 0.00 | 0.00 | 97 | 1011.5 |
| 20260505111544 | 47 | 0 | 0.0 | 0.9 | 0.00 | 0.00 | 0.00 | 96 | 1010.9 |
| 20260505111406 | 48 | 108 | 0.0 | 0.9 | 0.00 | 0.00 | 0.00 | 97 | 1011.7 |
| 20260505110837 | 47 | 108 | 0.0 | 0.9 | 0.00 | 0.00 | 0.00 | 96 | 1011.7 |
| 20260505110349 | 47 | 108 | 0.9 | 0.9 | 0.00 | 0.00 | 0.00 | 96 | 1011.6 |
| 20260505110114 | 46 | 108 | 0.0 | 0.9 | 0.00 | 0.00 | 0.00 | 96 | 1011.5 |
| 20260505101855 | 46 | 108 | 0.0 | 0.0 | 0.00 | 0.00 | 0.00 | 96 | 1011.1 |
| 20260505101618 | 46 | 108 | 0.0 | 0.0 | 0.00 | 0.00 | 0.00 | 96 | 1011.0 |
| 20260505101544 | 46 | 0 | 0.0 | 0.0 | 0.00 | 0.00 | 0.00 | 95 | 1010.3 |
| 20260505101346 | 46 | 108 | 0.0 | 0.0 | 0.00 | 0.00 | 0.00 | 95 | 1011.0 |
| 20260505100855 | 46 | 108 | 0.0 | 0.9 | 0.00 | 0.00 | 0.00 | 96 | 1011.1 |
| 20260505100345 | 46 | 108 | 0.0 | 0.9 | 0.00 | 0.00 | 0.00 | 96 | 1011.0 |
| 20260505100108 | 46 | 108 | 0.0 | 0.9 | 0.00 | 0.00 | 0.00 | 96 | 1010.8 |
| 20260505100039 | 45 | 0 | 0.0 | 0.9 | 0.00 | 0.00 | 0.00 | 95 | 1010.1 |
| 20260505095851 | 46 | 108 | 0.0 | 0.9 | 0.00 | 0.00 | 0.00 | 95 | 1010.8 |
| 20260505095341 | 46 | 108 | 0.0 | 0.9 | 0.00 | 0.00 | 0.00 | 95 | 1010.8 |
| 20260505094848 | 46 | 108 | 0.0 | 0.9 | 0.00 | 0.00 | 0.00 | 95 | 1010.8 |
| 20260505094614 | 45 | 108 | 0.0 | 0.9 | 0.00 | 0.00 | 0.00 | 95 | 1010.7 |
| 20260505094536 | 45 | 0 | 0.0 | 0.9 | 0.00 | 0.00 | 0.00 | 95 | 1010.0 |
| 20260505094338 | 46 | 108 | 0.0 | 0.9 | 0.00 | 0.00 | 0.00 | 95 | 1010.8 |
| 20260505093849 | 46 | 108 | 0.0 | 0.9 | 0.00 | 0.00 | 0.00 | 95 | 1010.8 |
| 20260505093340 | 46 | 108 | 0.0 | 0.0 | 0.00 | 0.00 | 0.00 | 95 | 1010.8 |
| 20260505093106 | 45 | 108 | 0.0 | 0.0 | 0.00 | 0.00 | 0.00 | 95 | 1010.7 |
| 20260505093051 | 45 | 0 | 0.0 | 0.0 | 0.00 | 0.00 | 0.00 | 95 | 1009.9 |
| 20260505092846 | 46 | 108 | 0.0 | 0.0 | 0.00 | 0.00 | 0.00 | 95 | 1010.7 |
| 20260505092336 | 46 | 108 | 0.0 | 0.0 | 0.00 | 0.00 | 0.00 | 95 | 1010.7 |
| 20260505091847 | 46 | 108 | 0.0 | 0.9 | 0.00 | 0.00 | 0.00 | 95 | 1010.8 |
| 20260505091615 | 45 | 108 | 0.0 | 0.9 | 0.00 | 0.00 | 0.00 | 95 | 1010.8 |
| 20260505091542 | 45 | 0 | 0.0 | 0.9 | 0.00 | 0.00 | 0.00 | 95 | 1009.9 |
| 20260505091357 | 46 | 108 | 0.0 | 0.9 | 0.00 | 0.00 | 0.00 | 95 | 1010.8 |
| 20260505090906 | 46 | 108 | 0.0 | 0.0 | 0.00 | 0.00 | 0.00 | 95 | 1010.7 |
| 20260505090418 | 46 | 108 | 0.0 | 0.0 | 0.00 | 0.00 | 0.00 | 95 | 1010.6 |
| 20260505090123 | 45 | 108 | 0.0 | 0.0 | 0.00 | 0.00 | 0.00 | 95 | 1010.6 |
| 20260505090041 | 46 | 0 | 0.0 | 0.9 | 0.00 | 0.00 | 0.00 | 94 | 1009.8 |
| 20260505085842 | 46 | 108 | 0.0 | 0.9 | 0.00 | 0.00 | 0.00 | 95 | 1010.7 |
| 20260505085414 | 46 | 108 | 0.0 | 0.9 | 0.00 | 0.00 | 0.00 | 95 | 1010.7 |
| 20260505084843 | 46 | 108 | 0.0 | 0.0 | 0.00 | 0.00 | 0.00 | 95 | 1010.7 |
| 20260505084610 | 46 | 108 | 0.0 | 0.0 | 0.00 | 0.00 | 0.00 | 95 | 1010.6 |
| 20260505084540 | 46 | 0 | 0.0 | 0.9 | 0.00 | 0.00 | 0.00 | 94 | 1009.8 |
| 20260505084352 | 46 | 108 | 0.0 | 0.9 | 0.00 | 0.00 | 0.00 | 95 | 1010.6 |
| 20260505083906 | 46 | 108 | 0.0 | 0.9 | 0.00 | 0.00 | 0.00 | 95 | 1010.7 |
| 20260505083356 | 46 | 108 | 0.0 | 0.9 | 0.00 | 0.00 | 0.00 | 95 | 1010.8 |
| 20260505083101 | 46 | 0 | 0.0 | 0.9 | 0.00 | 0.00 | 0.00 | 94 | 1009.9 |
| 20260505083005 | 46 | 108 | 0.0 | 0.9 | 0.00 | 0.00 | 0.00 | 95 | 1010.6 |
| 20260505082903 | 46 | 108 | 0.0 | 0.9 | 0.00 | 0.00 | 0.00 | 95 | 1010.7 |
| 20260505082352 | 46 | 108 | 0.0 | 0.9 | 0.00 | 0.00 | 0.00 | 95 | 1010.7 |
| 20260505081842 | 46 | 108 | 0.0 | 0.9 | 0.00 | 0.00 | 0.00 | 95 | 1010.8 |
| 20260505081629 | 46 | 108 | 0.0 | 0.9 | 0.00 | 0.00 | 0.00 | 94 | 1010.8 |
| 20260505081542 | 46 | 0 | 0.0 | 0.9 | 0.00 | 0.00 | 0.00 | 94 | 1010.1 |
| 20260505081352 | 46 | 108 | 0.0 | 0.9 | 0.00 | 0.00 | 0.00 | 94 | 1010.8 |
| 20260505080842 | 46 | 108 | 0.9 | 0.9 | 0.00 | 0.00 | 0.00 | 94 | 1010.8 |
| 20260505080354 | 46 | 108 | 0.0 | 0.9 | 0.00 | 0.00 | 0.00 | 94 | 1010.9 |
| 20260505080043 | 46 | 0 | 0.0 | 0.9 | 0.00 | 0.00 | 0.00 | 94 | 1010.0 |
| 20260505080002 | 46 | 108 | 0.0 | 0.0 | 0.00 | 0.00 | 0.00 | 94 | 1010.8 |
| 20260505075900 | 46 | 108 | 0.0 | 0.9 | 0.00 | 0.00 | 0.00 | 94 | 1010.8 |
| 20260505075349 | 46 | 108 | 0.0 | 0.9 | 0.00 | 0.00 | 0.00 | 94 | 1010.9 |
| 20260505074838 | 46 | 108 | 0.0 | 0.9 | 0.00 | 0.00 | 0.00 | 94 | 1010.8 |
| 20260505074605 | 46 | 108 | 0.0 | 0.9 | 0.00 | 0.00 | 0.00 | 94 | 1010.7 |
| 20260505074540 | 46 | 0 | 0.0 | 0.9 | 0.00 | 0.00 | 0.00 | 93 | 1010.0 |
| 20260505074348 | 46 | 108 | 0.0 | 0.9 | 0.00 | 0.00 | 0.00 | 94 | 1010.7 |
| 20260505073839 | 46 | 108 | 0.0 | 0.0 | 0.00 | 0.00 | 0.00 | 94 | 1010.7 |
| 20260505073349 | 47 | 108 | 0.0 | 0.0 | 0.00 | 0.00 | 0.00 | 94 | 1010.6 |
| 20260505073115 | 46 | 108 | 0.0 | 0.9 | 0.00 | 0.00 | 0.00 | 94 | 1010.6 |
| 20260505073041 | 46 | 0 | 0.0 | 0.9 | 0.00 | 0.00 | 0.00 | 93 | 1009.9 |
| 20260505072837 | 47 | 108 | 0.0 | 0.9 | 0.00 | 0.00 | 0.00 | 94 | 1010.7 |
| 20260505072408 | 47 | 108 | 0.0 | 0.0 | 0.00 | 0.00 | 0.00 | 94 | 1010.7 |
| 20260505071857 | 47 | 108 | 0.0 | 0.9 | 0.00 | 0.00 | 0.00 | 94 | 1010.6 |
| 20260505071604 | 46 | 108 | 0.0 | 0.9 | 0.00 | 0.00 | 0.00 | 94 | 1010.6 |
| 20260505071536 | 46 | 0 | 0.0 | 0.9 | 0.00 | 0.00 | 0.00 | 93 | 1009.9 |
| 20260505071345 | 47 | 108 | 0.0 | 0.9 | 0.00 | 0.00 | 0.00 | 94 | 1010.6 |
| 20260505070855 | 47 | 108 | 0.0 | 0.0 | 0.00 | 0.00 | 0.00 | 93 | 1010.6 |
| 20260505070407 | 47 | 108 | 0.0 | 0.0 | 0.00 | 0.00 | 0.00 | 93 | 1010.7 |
| 20260505070113 | 46 | 108 | 0.0 | 0.0 | 0.00 | 0.00 | 0.00 | 93 | 1010.6 |
| 20260505070059 | 46 | 0 | 0.0 | 0.0 | 0.00 | 0.00 | 0.00 | 93 | 1010.0 |
| 20260505065915 | 47 | 108 | 0.0 | 0.0 | 0.00 | 0.00 | 0.00 | 94 | 1010.7 |
| 20260505065344 | 47 | 108 | 0.0 | 0.0 | 0.00 | 0.00 | 0.00 | 94 | 1010.7 |
| 20260505064855 | 47 | 108 | 0.0 | 0.9 | 0.00 | 0.00 | 0.00 | 93 | 1010.7 |
| 20260505064602 | 47 | 108 | 0.0 | 0.9 | 0.00 | 0.00 | 0.00 | 93 | 1010.6 |
| 20260505064548 | 47 | 0 | 0.0 | 0.9 | 0.00 | 0.00 | 0.00 | 93 | 1010.0 |
| 20260505064345 | 47 | 108 | 0.0 | 0.9 | 0.00 | 0.00 | 0.00 | 93 | 1010.7 |
| 20260505063854 | 47 | 108 | 0.0 | 0.9 | 0.00 | 0.00 | 0.00 | 93 | 1010.7 |
| 20260505063346 | 47 | 108 | 0.0 | 0.9 | 0.00 | 0.00 | 0.00 | 93 | 1010.7 |
| 20260505063118 | 47 | 108 | 0.0 | 0.9 | 0.00 | 0.00 | 0.00 | 93 | 1010.8 |
| 20260505063042 | 47 | 0 | 0.0 | 0.0 | 0.00 | 0.00 | 0.00 | 92 | 1010.1 |
| 20260505062853 | 47 | 108 | 0.0 | 0.0 | 0.00 | 0.00 | 0.00 | 93 | 1010.7 |
| 20260505062343 | 47 | 108 | 0.0 | 0.0 | 0.00 | 0.00 | 0.00 | 93 | 1010.8 |
| 20260505061838 | 48 | 108 | 0.0 | 0.0 | 0.00 | 0.00 | 0.00 | 93 | 1010.9 |
| 20260505061622 | 47 | 108 | 0.0 | 0.0 | 0.00 | 0.00 | 0.00 | 93 | 1010.8 |
| 20260505061607 | 47 | 0 | 0.0 | 0.0 | 0.00 | 0.00 | 0.00 | 92 | 1010.1 |
| 20260505061348 | 48 | 108 | 0.0 | 0.0 | 0.00 | 0.00 | 0.00 | 93 | 1010.8 |
| 20260505060838 | 48 | 108 | 0.0 | 0.0 | 0.00 | 0.00 | 0.00 | 93 | 1010.8 |
| 20260505060411 | 48 | 108 | 0.0 | 0.0 | 0.00 | 0.00 | 0.00 | 93 | 1010.9 |
| 20260505060108 | 47 | 108 | 0.0 | 0.9 | 0.00 | 0.00 | 0.00 | 93 | 1010.8 |
| 20260505060050 | 47 | 0 | 0.0 | 0.9 | 0.00 | 0.00 | 0.00 | 92 | 1010.1 |
| 20260505055856 | 48 | 108 | 0.0 | 0.9 | 0.00 | 0.00 | 0.00 | 92 | 1010.8 |
| 20260505055344 | 48 | 108 | 0.0 | 0.9 | 0.00 | 0.00 | 0.00 | 93 | 1010.9 |
| 20260505054852 | 48 | 108 | 0.0 | 0.0 | 0.00 | 0.00 | 0.00 | 92 | 1010.9 |
| 20260505054615 | 48 | 108 | 0.0 | 0.0 | 0.00 | 0.00 | 0.00 | 92 | 1010.8 |
| 20260505054545 | 47 | 0 | 0.0 | 0.0 | 0.00 | 0.00 | 0.00 | 92 | 1010.2 |
| 20260505054339 | 48 | 108 | 0.0 | 0.0 | 0.00 | 0.00 | 0.00 | 92 | 1010.9 |
| 20260505053849 | 48 | 108 | 0.0 | 0.0 | 0.00 | 0.00 | 0.00 | 92 | 1011.0 |
| 20260505053400 | 48 | 108 | 0.0 | 0.0 | 0.00 | 0.00 | 0.00 | 92 | 1010.9 |
| 20260505053117 | 48 | 108 | 0.0 | 0.0 | 0.00 | 0.00 | 0.00 | 92 | 1010.9 |
| 20260505053043 | 48 | 0 | 0.0 | 0.0 | 0.00 | 0.00 | 0.00 | 92 | 1010.3 |
| 20260505052843 | 48 | 108 | 0.0 | 0.0 | 0.00 | 0.00 | 0.00 | 92 | 1010.9 |
| 20260505052353 | 48 | 108 | 0.0 | 0.0 | 0.00 | 0.00 | 0.00 | 92 | 1011.0 |
| 20260505051843 | 49 | 108 | 0.0 | 0.0 | 0.00 | 0.00 | 0.00 | 92 | 1011.1 |
| 20260505051612 | 48 | 108 | 0.0 | 0.0 | 0.00 | 0.00 | 0.00 | 92 | 1011.0 |
| 20260505051541 | 48 | 0 | 0.0 | 0.0 | 0.00 | 0.00 | 0.00 | 91 | 1010.4 |
| 20260505051353 | 49 | 108 | 0.0 | 0.0 | 0.00 | 0.00 | 0.00 | 92 | 1011.1 |
| 20260505050843 | 49 | 108 | 0.0 | 0.0 | 0.00 | 0.00 | 0.00 | 92 | 1011.0 |
| 20260505050355 | 49 | 108 | 0.0 | 0.9 | 0.00 | 0.00 | 0.00 | 92 | 1011.1 |
| 20260505050120 | 48 | 108 | 0.0 | 0.9 | 0.00 | 0.00 | 0.00 | 92 | 1011.0 |